Language: 


Des rapports , des résumés tant et plus, au choix de chacun....


Données Historiques de Météogheer
Journalier Rapport pour Février 28, 2018 Unitée:  Métrique    Impériale   Les deux
Suivant Jour »
Journalier Hebdomadaire Mensuel Annuel Sur mesure
  Max: Min: Moyenne:
Température: -0.4 °C -7.2 °C -4.1 °C
Point de rosée: -11.0 °C -16.0 °C -13.6 °C
Humidité: 73% 32% 52%
Vent: 33.8km/h 0.0km/h 13.8km/h
Rafales: 39.6km/h - -
Vent- - ENE
Pression: 1018.2 hPa 0.0 hPa -
Pluie: 0.0 mm    
Historical Graphs
 
 
Données tabulaires pour Février 28, 2018
Heure Température Point de rosée Pression Vent Vent Rafales Humidité Pluie Taux (Horaire) Conditions
00:03 -5.4 °C -11.0 °C 1018.2 hPa NE 1.8 km/h 6.4 km/h 65% 0.0 mm
00:08 -5.4 °C -11.0 °C 1018.2 hPa Calm   6.4 km/h 65% 0.0 mm
00:13 -5.5 °C -12.0 °C 1018.2 hPa NE 4.0 km/h 7.2 km/h 65% 0.0 mm
00:18 -5.5 °C -12.0 °C 1016.8 hPa ENE 6.4 km/h 7.6 km/h 65% 0.0 mm
00:23 -5.6 °C -12.0 °C 1016.8 hPa NNE 6.1 km/h 7.6 km/h 65% 0.0 mm
00:28 -5.6 °C -12.0 °C 1016.8 hPa NE 6.1 km/h 8.7 km/h 66% 0.0 mm
00:33 -5.7 °C -12.0 °C 1016.8 hPa Calm   8.7 km/h 66% 0.0 mm
00:38 -5.8 °C -12.0 °C 1016.8 hPa NE 5.0 km/h 7.9 km/h 66% 0.0 mm
00:43 -5.8 °C -12.0 °C 1016.8 hPa Calm   11.6 km/h 66% 0.0 mm
00:48 -5.8 °C -12.0 °C 1016.8 hPa ENE 6.4 km/h 11.6 km/h 67% 0.0 mm
00:53 -5.8 °C -12.0 °C 1016.8 hPa ENE 6.9 km/h 9.0 km/h 67% 0.0 mm
00:58 -5.7 °C -11.0 °C 1016.8 hPa ENE 4.0 km/h 8.7 km/h 67% 0.0 mm
01:03 -5.7 °C -11.0 °C 1016.8 hPa ENE 5.5 km/h 7.9 km/h 67% 0.0 mm
01:08 -5.8 °C -12.0 °C 1016.8 hPa East 4.7 km/h 6.9 km/h 67% 0.0 mm
01:28 -5.9 °C -12.0 °C 0.0 hPa ENE 6.1 km/h 6.1 km/h 66% 0.0 mm
01:33 -5.9 °C -12.0 °C 1016.8 hPa Calm   7.6 km/h 66% 0.0 mm
01:38 -5.8 °C -12.0 °C 1016.8 hPa ENE 5.8 km/h 9.3 km/h 66% 0.0 mm
01:43 -5.9 °C -12.0 °C 1016.8 hPa NE 5.8 km/h 9.3 km/h 66% 0.0 mm
01:48 -5.9 °C -12.0 °C 1016.8 hPa ENE 3.5 km/h 7.9 km/h 66% 0.0 mm
01:53 -5.9 °C -12.0 °C 1016.8 hPa Calm   8.7 km/h 66% 0.0 mm
01:58 -6.0 °C -12.0 °C 1016.8 hPa Calm   8.7 km/h 67% 0.0 mm
02:03 -6.0 °C -12.0 °C 1016.8 hPa NE 6.4 km/h 6.9 km/h 67% 0.0 mm
02:09 -6.0 °C -12.0 °C 1016.8 hPa NE 6.4 km/h 7.9 km/h 67% 0.0 mm
02:14 -6.0 °C -12.0 °C 1016.8 hPa NE 8.7 km/h 9.7 km/h 67% 0.0 mm
02:19 -6.0 °C -12.0 °C 1016.8 hPa NE 6.4 km/h 9.7 km/h 68% 0.0 mm
02:24 -6.1 °C -12.0 °C 1016.8 hPa NE 5.0 km/h 9.0 km/h 68% 0.0 mm
02:29 -6.1 °C -12.0 °C 1016.8 hPa NE 6.9 km/h 9.0 km/h 68% 0.0 mm
02:34 -6.2 °C -12.0 °C 1016.8 hPa Calm   7.6 km/h 68% 0.0 mm
02:39 -6.2 °C -12.0 °C 1016.8 hPa Calm   6.4 km/h 68% 0.0 mm
02:44 -6.2 °C -12.0 °C 1016.1 hPa ENE 5.8 km/h 6.4 km/h 68% 0.0 mm
02:49 -6.2 °C -12.0 °C 1016.1 hPa Calm   6.4 km/h 68% 0.0 mm
02:54 -6.3 °C -12.0 °C 1016.1 hPa Calm   6.4 km/h 67% 0.0 mm
02:59 -6.3 °C -12.0 °C 1016.8 hPa ENE 5.0 km/h 5.5 km/h 67% 0.0 mm
03:04 -6.4 °C -12.0 °C 1016.8 hPa ENE 4.7 km/h 6.1 km/h 67% 0.0 mm
03:09 -6.5 °C -12.0 °C 1016.8 hPa Calm   6.4 km/h 67% 0.0 mm
03:14 -6.5 °C -12.0 °C 1018.2 hPa NE 3.5 km/h 6.4 km/h 67% 0.0 mm
03:19 -6.5 °C -12.0 °C 1018.2 hPa ENE 6.1 km/h 6.9 km/h 68% 0.0 mm
03:24 -6.6 °C -12.0 °C 1018.2 hPa ENE 5.0 km/h 6.9 km/h 68% 0.0 mm
03:29 -6.7 °C -12.0 °C 1016.8 hPa ENE 4.7 km/h 6.9 km/h 68% 0.0 mm
03:34 -6.7 °C -12.0 °C 1016.8 hPa ENE 6.4 km/h 6.4 km/h 68% 0.0 mm
03:39 -6.7 °C -12.0 °C 1016.8 hPa Calm   6.4 km/h 69% 0.0 mm
03:44 -6.7 °C -12.0 °C 1016.8 hPa NE 5.5 km/h 6.4 km/h 69% 0.0 mm
03:49 -6.7 °C -12.0 °C 1016.8 hPa NE 5.5 km/h 6.4 km/h 69% 0.0 mm
03:54 -6.7 °C -12.0 °C 1016.8 hPa Calm   6.4 km/h 69% 0.0 mm
04:00 -6.7 °C -12.0 °C 1016.8 hPa NE 4.0 km/h 6.4 km/h 69% 0.0 mm
04:05 -6.7 °C -12.0 °C 1016.8 hPa East 5.5 km/h 10.5 km/h 69% 0.0 mm
04:10 -6.8 °C -12.0 °C 1016.8 hPa Calm   10.5 km/h 69% 0.0 mm
04:15 -6.8 °C -12.0 °C 1016.8 hPa East 5.5 km/h 6.9 km/h 69% 0.0 mm
04:20 -6.8 °C -12.0 °C 1016.8 hPa Calm   6.9 km/h 69% 0.0 mm
04:25 -6.8 °C -12.0 °C 1016.8 hPa ENE 4.3 km/h 5.5 km/h 69% 0.0 mm
04:30 -6.8 °C -12.0 °C 1016.1 hPa Calm   4.7 km/h 69% 0.0 mm
04:35 -6.8 °C -12.0 °C 1016.1 hPa Calm   4.7 km/h 69% 0.0 mm
04:40 -6.8 °C -12.0 °C 1016.1 hPa Calm   3.2 km/h 69% 0.0 mm
04:45 -6.9 °C -12.0 °C 1016.8 hPa Calm   5.0 km/h 69% 0.0 mm
04:50 -6.9 °C -12.0 °C 1016.8 hPa NE 2.1 km/h 6.1 km/h 69% 0.0 mm
04:55 -6.9 °C -12.0 °C 1016.8 hPa Calm   6.4 km/h 69% 0.0 mm
05:00 -7.0 °C -12.0 °C 1016.8 hPa Calm   6.4 km/h 70% 0.0 mm
05:05 -7.0 °C -12.0 °C 1016.8 hPa East 5.5 km/h 8.7 km/h 70% 0.0 mm
05:10 -7.1 °C -12.0 °C 1016.8 hPa East 5.5 km/h 8.7 km/h 70% 0.0 mm
05:15 -7.1 °C -12.0 °C 1016.8 hPa Calm   7.9 km/h 70% 0.0 mm
05:20 -7.1 °C -12.0 °C 1016.8 hPa Calm   7.9 km/h 70% 0.0 mm
05:25 -7.1 °C -12.0 °C 1016.8 hPa NE 4.0 km/h 7.6 km/h 70% 0.0 mm
05:30 -7.2 °C -12.0 °C 1016.8 hPa ENE 9.0 km/h 9.0 km/h 71% 0.0 mm
05:35 -7.2 °C -12.0 °C 1016.8 hPa ENE 7.9 km/h 10.1 km/h 71% 0.0 mm
05:40 -7.2 °C -12.0 °C 1016.8 hPa ENE 5.8 km/h 10.1 km/h 72% 0.0 mm
05:45 -7.2 °C -12.0 °C 1016.8 hPa ENE 6.4 km/h 9.7 km/h 72% 0.0 mm
05:50 -7.2 °C -12.0 °C 1016.8 hPa ENE 6.9 km/h 9.0 km/h 72% 0.0 mm
05:55 -7.2 °C -12.0 °C 1016.8 hPa Calm   8.7 km/h 72% 0.0 mm
06:01 -7.2 °C -12.0 °C 1016.8 hPa ENE 5.5 km/h 8.7 km/h 71% 0.0 mm
06:06 -7.2 °C -12.0 °C 1016.8 hPa ENE 6.1 km/h 9.7 km/h 72% 0.0 mm
06:11 -7.1 °C -12.0 °C 1016.8 hPa ENE 7.9 km/h 11.6 km/h 72% 0.0 mm
06:16 -7.0 °C -12.0 °C 1016.8 hPa NE 8.7 km/h 11.6 km/h 72% 0.0 mm
06:21 -6.9 °C -12.0 °C 1016.8 hPa NE 9.3 km/h 9.7 km/h 72% 0.0 mm
06:26 -6.9 °C -12.0 °C 1016.8 hPa ENE 8.7 km/h 9.7 km/h 72% 0.0 mm
06:31 -6.8 °C -12.0 °C 1016.8 hPa East 10.5 km/h 10.5 km/h 71% 0.0 mm
06:36 -6.8 °C -12.0 °C 1016.8 hPa NE 6.9 km/h 10.5 km/h 71% 0.0 mm
06:41 -6.8 °C -12.0 °C 1016.8 hPa NE 9.3 km/h 13.0 km/h 71% 0.0 mm
06:46 -6.8 °C -12.0 °C 1016.8 hPa ENE 8.7 km/h 13.0 km/h 71% 0.0 mm
06:51 -6.9 °C -12.0 °C 1016.8 hPa ENE 6.9 km/h 9.7 km/h 71% 0.0 mm
06:56 -6.9 °C -12.0 °C 1016.8 hPa ENE 6.4 km/h 9.7 km/h 71% 0.0 mm
07:01 -6.9 °C -12.0 °C 1016.1 hPa East 8.7 km/h 10.1 km/h 71% 0.0 mm
07:06 -7.0 °C -12.0 °C 1016.1 hPa ENE 6.1 km/h 10.1 km/h 71% 0.0 mm
07:11 -7.0 °C -12.0 °C 1016.1 hPa ENE 6.9 km/h 10.1 km/h 71% 0.0 mm
07:16 -7.1 °C -12.0 °C 1016.8 hPa ENE 7.9 km/h 10.1 km/h 71% 0.0 mm
07:21 -7.1 °C -12.0 °C 1016.8 hPa East 9.0 km/h 9.0 km/h 71% 0.0 mm
07:26 -7.2 °C -12.0 °C 1016.8 hPa ENE 7.2 km/h 12.6 km/h 72% 0.0 mm
07:32 -7.2 °C -12.0 °C 1016.8 hPa ENE 6.1 km/h 12.6 km/h 72% 0.0 mm
07:37 -7.2 °C -12.0 °C 1016.8 hPa East 10.1 km/h 10.1 km/h 72% 0.0 mm
07:42 -7.2 °C -12.0 °C 1016.8 hPa NE 7.9 km/h 10.5 km/h 72% 0.0 mm
07:47 -7.2 °C -12.0 °C 1016.8 hPa Calm   10.5 km/h 72% 0.0 mm
07:52 -7.2 °C -12.0 °C 1016.8 hPa ENE 5.5 km/h 9.3 km/h 72% 0.0 mm
07:57 -7.1 °C -12.0 °C 1016.8 hPa East 4.7 km/h 10.1 km/h 72% 0.0 mm
08:02 -7.0 °C -12.0 °C 1016.8 hPa ENE 10.1 km/h 11.9 km/h 73% 0.0 mm
08:07 -6.9 °C -12.0 °C 1016.8 hPa NE 10.1 km/h 11.9 km/h 73% 0.0 mm
08:12 -6.8 °C -12.0 °C 1016.8 hPa East 10.1 km/h 11.6 km/h 73% 0.0 mm
08:17 -6.6 °C -11.0 °C 1016.8 hPa NE 10.1 km/h 12.6 km/h 72% 0.0 mm
08:22 -6.5 °C -11.0 °C 1016.8 hPa ENE 11.1 km/h 15.4 km/h 72% 0.0 mm
08:27 -6.3 °C -11.0 °C 1016.8 hPa ENE 7.9 km/h 18.0 km/h 71% 0.0 mm
08:32 -6.2 °C -11.0 °C 1016.1 hPa ENE 13.7 km/h 18.0 km/h 70% 0.0 mm
08:37 -6.0 °C -12.0 °C 1016.1 hPa ENE 11.9 km/h 15.4 km/h 69% 0.0 mm
08:42 -5.9 °C -12.0 °C 1016.1 hPa East 17.2 km/h 18.0 km/h 67% 0.0 mm
08:47 -5.8 °C -12.0 °C 1016.1 hPa East 10.1 km/h 18.0 km/h 66% 0.0 mm
08:52 -5.6 °C -12.0 °C 1016.1 hPa ENE 1.8 km/h 17.7 km/h 65% 0.0 mm
08:57 -5.5 °C -12.0 °C 1016.1 hPa ENE 12.2 km/h 17.2 km/h 64% 0.0 mm
09:02 -5.3 °C -12.0 °C 1016.8 hPa ENE 12.2 km/h 17.2 km/h 63% 0.0 mm
09:07 -5.2 °C -12.0 °C 1016.8 hPa ENE 10.1 km/h 16.9 km/h 61% 0.0 mm
09:12 -5.1 °C -12.0 °C 1016.8 hPa East 11.9 km/h 20.1 km/h 60% 0.0 mm
09:17 -5.0 °C -13.0 °C 1016.8 hPa SSE 11.6 km/h 21.2 km/h 58% 0.0 mm
09:22 -4.9 °C -12.0 °C 1016.8 hPa East 10.1 km/h 21.2 km/h 58% 0.0 mm
09:27 -4.8 °C -13.0 °C 1016.8 hPa NE 15.8 km/h 20.6 km/h 56% 0.0 mm
09:32 -4.7 °C -13.0 °C 1016.1 hPa East 12.6 km/h 20.6 km/h 56% 0.0 mm
09:37 -4.6 °C -13.0 °C 1016.1 hPa East 10.1 km/h 20.6 km/h 55% 0.0 mm
09:42 -4.5 °C -13.0 °C 1016.1 hPa NE 12.6 km/h 19.1 km/h 54% 0.0 mm
09:47 -4.5 °C -13.0 °C 1016.8 hPa East 7.9 km/h 24.8 km/h 54% 0.0 mm
09:52 -4.4 °C -13.0 °C 1016.8 hPa East 16.3 km/h 24.8 km/h 54% 0.0 mm
09:58 -4.2 °C -12.0 °C 1016.8 hPa East 15.1 km/h 20.9 km/h 54% 0.0 mm
10:03 -4.2 °C -12.0 °C 1016.8 hPa East 17.2 km/h 20.9 km/h 54% 0.0 mm
10:08 -4.1 °C -13.0 °C 1016.8 hPa ESE 12.2 km/h 23.8 km/h 52% 0.0 mm
10:13 -4.0 °C -13.0 °C 1016.8 hPa East 20.6 km/h 23.8 km/h 52% 0.0 mm
10:18 -3.9 °C -13.0 °C 1016.8 hPa East 10.5 km/h 20.9 km/h 52% 0.0 mm
10:23 -3.7 °C -12.0 °C 1016.8 hPa East 15.8 km/h 23.8 km/h 52% 0.0 mm
10:28 -3.7 °C -13.0 °C 1016.8 hPa East 18.0 km/h 23.8 km/h 51% 0.0 mm
10:33 -3.5 °C -13.0 °C 1016.1 hPa NE 11.9 km/h 19.5 km/h 51% 0.0 mm
10:38 -3.3 °C -12.0 °C 1016.1 hPa ENE 12.2 km/h 20.9 km/h 51% 0.0 mm
10:43 -3.3 °C -13.0 °C 1016.1 hPa East 20.6 km/h 23.0 km/h 49% 0.0 mm
10:48 -3.1 °C -13.0 °C 1016.8 hPa NE 16.3 km/h 23.0 km/h 49% 0.0 mm
10:53 -3.1 °C -13.0 °C 1016.8 hPa ESE 19.5 km/h 25.9 km/h 47% 0.0 mm
10:58 -2.9 °C -13.0 °C 1016.8 hPa ESE 20.6 km/h 25.9 km/h 47% 0.0 mm
11:03 -2.8 °C -13.0 °C 1016.8 hPa NE 16.9 km/h 24.5 km/h 46% 0.0 mm
11:08 -2.7 °C -13.0 °C 1016.8 hPa East 15.8 km/h 20.6 km/h 46% 0.0 mm
11:13 -2.5 °C -13.0 °C 1016.8 hPa East 12.2 km/h 22.4 km/h 46% 0.0 mm
11:18 -2.4 °C -13.0 °C 1016.8 hPa ENE 16.3 km/h 23.0 km/h 45% 0.0 mm
11:23 -2.4 °C -13.0 °C 1016.8 hPa East 16.9 km/h 23.0 km/h 45% 0.0 mm
11:28 -2.3 °C -13.0 °C 1016.8 hPa East 21.2 km/h 31.4 km/h 45% 0.0 mm
11:33 -2.3 °C -13.0 °C 1016.8 hPa ESE 17.2 km/h 31.4 km/h 45% 0.0 mm
11:38 -2.1 °C -13.0 °C 1016.8 hPa ENE 24.5 km/h 24.8 km/h 45% 0.0 mm
11:43 -2.1 °C -13.0 °C 1016.8 hPa ENE 19.5 km/h 28.5 km/h 44% 0.0 mm
11:48 -1.9 °C -13.0 °C 1016.8 hPa ENE 16.6 km/h 28.5 km/h 44% 0.0 mm
11:54 -1.7 °C -13.0 °C 1016.8 hPa ESE 19.8 km/h 26.7 km/h 43% 0.0 mm
11:59 -1.7 °C -13.0 °C 1016.1 hPa ENE 13.0 km/h 28.5 km/h 43% 0.0 mm
12:04 -1.6 °C -13.0 °C 1016.1 hPa NNE 28.8 km/h 28.8 km/h 43% 0.0 mm
12:09 -1.6 °C -13.0 °C 1016.1 hPa East 22.7 km/h 38.9 km/h 42% 0.0 mm
12:14 -1.4 °C -13.0 °C 1016.1 hPa ESE 17.2 km/h 38.9 km/h 42% 0.0 mm
12:19 -1.4 °C -13.0 °C 1016.1 hPa East 12.6 km/h 29.9 km/h 41% 0.0 mm
12:24 -1.4 °C -13.0 °C 1016.1 hPa ENE 28.5 km/h 29.9 km/h 41% 0.0 mm
12:29 -1.4 °C -13.0 °C 1015.1 hPa East 17.7 km/h 28.5 km/h 41% 0.0 mm
12:34 -1.4 °C -13.0 °C 1015.1 hPa ENE 21.2 km/h 29.1 km/h 41% 0.0 mm
12:39 -1.4 °C -13.0 °C 1015.1 hPa ENE 17.7 km/h 29.1 km/h 41% 0.0 mm
12:44 -1.5 °C -14.0 °C 1015.1 hPa East 24.8 km/h 37.0 km/h 41% 0.0 mm
12:49 -1.4 °C -13.0 °C 1015.1 hPa NE 24.5 km/h 37.0 km/h 41% 0.0 mm
12:54 -1.3 °C -13.0 °C 1015.1 hPa ENE 15.1 km/h 33.5 km/h 41% 0.0 mm
12:59 -1.3 °C -14.0 °C 1015.1 hPa East 23.0 km/h 32.3 km/h 40% 0.0 mm
13:04 -1.2 °C -14.0 °C 1015.1 hPa East 31.4 km/h 32.3 km/h 40% 0.0 mm
13:09 -1.3 °C -14.0 °C 1015.1 hPa ESE 20.6 km/h 31.4 km/h 39% 0.0 mm
13:15 -1.2 °C -14.0 °C 1014.1 hPa ENE 16.3 km/h 36.0 km/h 39% 0.0 mm
13:20 -1.1 °C -14.0 °C 1014.1 hPa ENE 21.6 km/h 36.0 km/h 38% 0.0 mm
13:25 -1.0 °C -14.0 °C 1014.1 hPa SE 20.6 km/h 36.0 km/h 38% 0.0 mm
13:30 -0.8 °C -14.0 °C 1014.1 hPa ENE 19.8 km/h 30.9 km/h 37% 0.0 mm
13:35 -0.8 °C -15.0 °C 1014.1 hPa ENE 23.3 km/h 38.9 km/h 36% 0.0 mm
13:40 -0.7 °C -14.0 °C 1014.1 hPa East 13.0 km/h 38.9 km/h 37% 0.0 mm
13:45 -0.5 °C -14.0 °C 1015.1 hPa ENE 28.8 km/h 29.1 km/h 37% 0.0 mm
13:50 -0.5 °C -14.0 °C 1015.1 hPa NE 13.0 km/h 32.0 km/h 36% 0.0 mm
13:55 -0.4 °C -14.0 °C 1015.1 hPa ENE 14.0 km/h 32.0 km/h 36% 0.0 mm
14:00 -0.5 °C -15.0 °C 1015.1 hPa East 20.1 km/h 27.7 km/h 35% 0.0 mm
14:05 -0.5 °C -15.0 °C 1015.1 hPa ENE 24.8 km/h 32.0 km/h 34% 0.0 mm
14:10 -0.6 °C -15.0 °C 1015.1 hPa East 24.8 km/h 32.0 km/h 34% 0.0 mm
14:15 -0.6 °C -15.0 °C 1015.1 hPa ENE 20.9 km/h 32.0 km/h 34% 0.0 mm
14:20 -0.7 °C -15.0 °C 1015.1 hPa ESE 12.6 km/h 31.4 km/h 34% 0.0 mm
14:25 -0.5 °C -15.0 °C 1015.1 hPa East 24.5 km/h 31.4 km/h 34% 0.0 mm
14:30 -0.5 °C -15.0 °C 1014.1 hPa ENE 20.9 km/h 31.7 km/h 34% 0.0 mm
14:35 -0.4 °C -15.0 °C 1014.1 hPa East 20.9 km/h 31.7 km/h 34% 0.0 mm
14:40 -0.5 °C -15.0 °C 1014.1 hPa ENE 21.2 km/h 34.6 km/h 33% 0.0 mm
14:45 -0.4 °C -15.0 °C 1014.1 hPa ESE 21.2 km/h 34.6 km/h 34% 0.0 mm
14:50 -0.5 °C -15.0 °C 1014.1 hPa East 26.2 km/h 33.5 km/h 33% 0.0 mm
14:55 -0.4 °C -15.0 °C 1014.1 hPa NE 15.8 km/h 33.5 km/h 34% 0.0 mm
15:01 -0.5 °C -15.0 °C 1014.1 hPa ESE 28.5 km/h 39.6 km/h 33% 0.0 mm
15:06 -0.4 °C -15.0 °C 1014.1 hPa ESE 17.7 km/h 39.6 km/h 34% 0.0 mm
15:11 -0.5 °C -15.0 °C 1014.1 hPa ESE 33.8 km/h 33.8 km/h 33% 0.0 mm
15:16 -0.5 °C -15.0 °C 1014.1 hPa East 20.9 km/h 35.6 km/h 33% 0.0 mm
15:21 -0.4 °C -15.0 °C 1014.1 hPa East 13.7 km/h 35.6 km/h 33% 0.0 mm
15:26 -0.4 °C -15.0 °C 1014.1 hPa East 13.0 km/h 32.3 km/h 33% 0.0 mm
15:31 -0.5 °C -16.0 °C 1013.1 hPa East 25.6 km/h 38.9 km/h 32% 0.0 mm
15:36 -0.5 °C -15.0 °C 1013.1 hPa East 16.3 km/h 38.9 km/h 33% 0.0 mm
15:41 -0.5 °C -15.0 °C 1013.1 hPa East 24.5 km/h 37.0 km/h 33% 0.0 mm
15:46 -0.5 °C -15.0 °C 1013.1 hPa ENE 20.6 km/h 31.7 km/h 33% 0.0 mm
15:51 -0.5 °C -15.0 °C 1013.1 hPa ENE 28.5 km/h 28.8 km/h 33% 0.0 mm
15:56 -0.5 °C -15.0 °C 1013.1 hPa ENE 24.8 km/h 31.4 km/h 34% 0.0 mm
16:01 -0.5 °C -15.0 °C 1013.1 hPa ENE 23.8 km/h 31.4 km/h 34% 0.0 mm
16:06 -0.5 °C -15.0 °C 1013.1 hPa East 19.5 km/h 36.4 km/h 34% 0.0 mm
16:11 -0.4 °C -15.0 °C 1013.1 hPa NE 14.0 km/h 36.4 km/h 34% 0.0 mm
16:16 -0.5 °C -15.0 °C 1013.1 hPa East 14.0 km/h 31.4 km/h 34% 0.0 mm
16:21 -0.7 °C -15.0 °C 1013.1 hPa ENE 23.8 km/h 31.4 km/h 33% 0.0 mm
16:26 -0.8 °C -15.0 °C 1013.1 hPa East 28.0 km/h 28.0 km/h 34% 0.0 mm
16:31 -0.9 °C -15.0 °C 1013.1 hPa East 16.9 km/h 31.4 km/h 34% 0.0 mm
16:36 -0.9 °C -15.0 °C 1013.1 hPa NE 22.4 km/h 31.4 km/h 34% 0.0 mm
16:41 -1.0 °C -15.0 °C 1013.1 hPa East 16.6 km/h 29.9 km/h 35% 0.0 mm
16:46 -1.0 °C -15.0 °C 1013.1 hPa ENE 20.9 km/h 29.9 km/h 35% 0.0 mm
16:51 -1.1 °C -15.0 °C 1013.1 hPa NNE 20.1 km/h 31.7 km/h 34% 0.0 mm
16:56 -1.3 °C -16.0 °C 1013.1 hPa ENE 19.1 km/h 31.7 km/h 34% 0.0 mm
17:01 -1.4 °C -16.0 °C 1012.1 hPa ENE 24.5 km/h 31.7 km/h 34% 0.0 mm
17:07 -1.4 °C -16.0 °C 1012.1 hPa East 16.6 km/h 27.7 km/h 34% 0.0 mm
17:12 -1.4 °C -15.0 °C 1012.1 hPa East 23.8 km/h 27.7 km/h 35% 0.0 mm
17:17 -1.5 °C -16.0 °C 1011.1 hPa NE 22.4 km/h 28.0 km/h 35% 0.0 mm
17:22 -1.7 °C -16.0 °C 1011.1 hPa East 24.5 km/h 31.4 km/h 34% 0.0 mm
17:27 -1.9 °C -16.0 °C 1011.1 hPa NE 25.9 km/h 32.8 km/h 34% 0.0 mm
17:32 -2.0 °C -16.0 °C 1011.1 hPa ENE 17.7 km/h 32.8 km/h 34% 0.0 mm
17:40 -2.1 °C -16.0 °C 1011.1 hPa ENE 20.6 km/h 27.4 km/h 35% 0.0 mm
17:45 -2.1 °C -16.0 °C 1011.1 hPa NE 17.7 km/h 27.4 km/h 36% 0.0 mm
17:50 -2.1 °C -16.0 °C 1011.1 hPa ENE 28.0 km/h 30.9 km/h 36% 0.0 mm
17:55 -2.2 °C -16.0 °C 1011.1 hPa East 16.6 km/h 30.9 km/h 36% 0.0 mm
18:00 -2.3 °C -16.0 °C 1011.1 hPa ENE 17.7 km/h 24.8 km/h 36% 0.0 mm
18:05 -2.3 °C -16.0 °C 1011.1 hPa ENE 23.8 km/h 24.8 km/h 37% 0.0 mm
18:10 -2.4 °C -16.0 °C 1011.1 hPa East 25.3 km/h 27.4 km/h 37% 0.0 mm
18:15 -2.5 °C -16.0 °C 1010.0 hPa East 23.3 km/h 27.4 km/h 37% 0.0 mm
18:20 -2.6 °C -16.0 °C 1010.0 hPa East 21.2 km/h 27.0 km/h 38% 0.0 mm
18:25 -2.7 °C -16.0 °C 1010.0 hPa ENE 17.7 km/h 23.3 km/h 38% 0.0 mm
18:30 -2.8 °C -16.0 °C 1011.1 hPa ENE 19.1 km/h 30.6 km/h 38% 0.0 mm
18:35 -2.9 °C -16.0 °C 1011.1 hPa NE 13.0 km/h 30.6 km/h 38% 0.0 mm
18:40 -2.9 °C -16.0 °C 1011.1 hPa East 21.2 km/h 28.5 km/h 38% 0.0 mm
18:45 -3.0 °C -15.0 °C 1011.1 hPa ENE 13.7 km/h 28.5 km/h 39% 0.0 mm
18:50 -3.1 °C -15.0 °C 1011.1 hPa NE 27.7 km/h 32.0 km/h 39% 0.0 mm
18:55 -3.1 °C -15.0 °C 1011.1 hPa ENE 16.6 km/h 32.0 km/h 39% 0.0 mm
19:00 -3.2 °C -16.0 °C 1011.1 hPa East 17.2 km/h 30.9 km/h 39% 0.0 mm
19:05 -3.2 °C -16.0 °C 1011.1 hPa East 23.3 km/h 26.2 km/h 39% 0.0 mm
19:10 -3.2 °C -16.0 °C 1011.1 hPa ENE 21.2 km/h 30.9 km/h 39% 0.0 mm
19:15 -3.3 °C -16.0 °C 1011.1 hPa East 27.7 km/h 31.7 km/h 39% 0.0 mm
19:21 -3.3 °C -16.0 °C 1011.1 hPa ENE 20.6 km/h 31.7 km/h 39% 0.0 mm
19:26 -3.3 °C -16.0 °C 1011.1 hPa East 20.1 km/h 32.0 km/h 39% 0.0 mm
19:31 -3.3 °C -16.0 °C 1011.1 hPa ENE 13.0 km/h 32.0 km/h 39% 0.0 mm
19:36 -3.3 °C -16.0 °C 1011.1 hPa East 16.6 km/h 34.6 km/h 39% 0.0 mm
19:41 -3.4 °C -16.0 °C 1011.1 hPa East 20.9 km/h 36.4 km/h 39% 0.0 mm
19:46 -3.4 °C -16.0 °C 1011.1 hPa East 24.5 km/h 36.4 km/h 39% 0.0 mm
19:51 -3.4 °C -15.0 °C 1011.1 hPa ENE 17.2 km/h 28.5 km/h 40% 0.0 mm
19:56 -3.5 °C -16.0 °C 1011.1 hPa East 27.4 km/h 28.8 km/h 40% 0.0 mm
20:01 -3.5 °C -15.0 °C 1011.1 hPa East 31.4 km/h 31.4 km/h 41% 0.0 mm
20:06 -3.5 °C -15.0 °C 1011.1 hPa ENE 20.9 km/h 31.4 km/h 41% 0.0 mm
20:11 -3.6 °C -15.0 °C 1011.1 hPa ENE 16.3 km/h 31.4 km/h 41% 0.0 mm
20:16 -3.6 °C -15.0 °C 1011.1 hPa East 19.8 km/h 27.4 km/h 42% 0.0 mm
20:21 -3.7 °C -15.0 °C 1011.1 hPa NE 16.6 km/h 27.4 km/h 42% 0.0 mm
20:26 -3.8 °C -15.0 °C 1011.1 hPa NE 16.6 km/h 24.8 km/h 43% 0.0 mm
20:31 -3.9 °C -15.0 °C 1010.0 hPa NE 20.9 km/h 29.1 km/h 43% 0.0 mm
20:36 -4.0 °C -15.0 °C 1010.0 hPa ENE 17.7 km/h 29.1 km/h 44% 0.0 mm
20:41 -4.1 °C -15.0 °C 1010.0 hPa ENE 11.1 km/h 24.8 km/h 44% 0.0 mm
20:46 -4.1 °C -15.0 °C 1011.1 hPa NE 27.7 km/h 27.7 km/h 44% 0.0 mm
20:51 -4.2 °C -15.0 °C 1011.1 hPa ENE 12.6 km/h 27.7 km/h 45% 0.0 mm
20:57 -4.2 °C -15.0 °C 1011.1 hPa East 12.6 km/h 25.3 km/h 45% 0.0 mm
21:02 -4.3 °C -15.0 °C 1010.0 hPa ENE 14.0 km/h 24.5 km/h 45% 0.0 mm
21:07 -4.4 °C -15.0 °C 1010.0 hPa ENE 17.7 km/h 21.9 km/h 45% 0.0 mm
21:12 -4.4 °C -15.0 °C 1010.0 hPa ENE 19.8 km/h 21.9 km/h 45% 0.0 mm
21:17 -4.5 °C -15.0 °C 1010.0 hPa East 20.6 km/h 21.2 km/h 45% 0.0 mm
21:22 -4.5 °C -15.0 °C 1010.0 hPa ENE 17.2 km/h 21.6 km/h 45% 0.0 mm
21:27 -4.6 °C -15.0 °C 1010.0 hPa ENE 13.7 km/h 21.6 km/h 46% 0.0 mm
21:32 -4.6 °C -15.0 °C 1011.1 hPa ENE 13.7 km/h 20.6 km/h 46% 0.0 mm
21:37 -4.7 °C -15.0 °C 1011.1 hPa ENE 11.9 km/h 21.2 km/h 46% 0.0 mm
21:42 -4.7 °C -15.0 °C 1011.1 hPa ENE 12.2 km/h 23.8 km/h 46% 0.0 mm
21:47 -4.7 °C -15.0 °C 1010.0 hPa East 16.6 km/h 23.8 km/h 46% 0.0 mm
21:52 -4.7 °C -15.0 °C 1010.0 hPa NE 13.7 km/h 21.2 km/h 46% 0.0 mm
21:57 -4.7 °C -15.0 °C 1010.0 hPa ENE 13.7 km/h 21.6 km/h 46% 0.0 mm
22:02 -4.8 °C -15.0 °C 1010.0 hPa ENE 17.7 km/h 24.8 km/h 46% 0.0 mm
22:07 -4.8 °C -15.0 °C 1010.0 hPa East 18.0 km/h 24.8 km/h 46% 0.0 mm
22:12 -4.8 °C -15.0 °C 1010.0 hPa ENE 10.8 km/h 22.4 km/h 46% 0.0 mm
22:17 -4.9 °C -15.0 °C 1010.0 hPa NE 15.8 km/h 24.8 km/h 46% 0.0 mm
22:22 -4.9 °C -15.0 °C 1010.0 hPa East 16.3 km/h 24.8 km/h 46% 0.0 mm
22:27 -4.9 °C -15.0 °C 1010.0 hPa NNE 16.6 km/h 25.3 km/h 46% 0.0 mm
22:32 -5.0 °C -15.0 °C 1009.0 hPa East 15.8 km/h 27.0 km/h 47% 0.0 mm
22:37 -5.0 °C -15.0 °C 1009.0 hPa East 16.3 km/h 27.0 km/h 47% 0.0 mm
22:43 -5.0 °C -15.0 °C 1009.0 hPa East 21.2 km/h 25.9 km/h 47% 0.0 mm
22:48 -5.1 °C -15.0 °C 1009.0 hPa ENE 16.3 km/h 24.5 km/h 47% 0.0 mm
22:53 -5.1 °C -15.0 °C 1009.0 hPa NE 24.5 km/h 24.5 km/h 47% 0.0 mm
22:58 -5.1 °C -15.0 °C 1009.0 hPa East 27.7 km/h 27.7 km/h 47% 0.0 mm
23:03 -5.1 °C -15.0 °C 1009.0 hPa East 17.2 km/h 27.7 km/h 47% 0.0 mm
23:08 -5.1 °C -15.0 °C 1009.0 hPa East 21.6 km/h 27.7 km/h 47% 0.0 mm
23:13 -5.1 °C -15.0 °C 1009.0 hPa East 9.0 km/h 27.7 km/h 47% 0.0 mm
23:18 -5.1 °C -15.0 °C 1009.0 hPa ESE 14.0 km/h 27.7 km/h 47% 0.0 mm
23:23 -5.1 °C -15.0 °C 1009.0 hPa ENE 15.4 km/h 27.7 km/h 47% 0.0 mm
23:28 -5.2 °C -15.0 °C 1009.0 hPa NE 17.7 km/h 27.0 km/h 47% 0.0 mm
23:33 -5.2 °C -15.0 °C 1009.0 hPa ENE 20.1 km/h 27.0 km/h 47% 0.0 mm
23:38 -5.2 °C -15.0 °C 1009.0 hPa ENE 15.1 km/h 30.9 km/h 47% 0.0 mm
23:43 -5.2 °C -15.0 °C 1009.0 hPa ENE 16.9 km/h 30.9 km/h 47% 0.0 mm
23:48 -5.2 °C -15.0 °C 1008.0 hPa ENE 20.6 km/h 36.7 km/h 47% 0.0 mm
23:53 -5.2 °C -15.0 °C 1008.0 hPa ENE 24.8 km/h 36.7 km/h 47% 0.0 mm
23:58 -5.2 °C -15.0 °C 1008.0 hPa East 16.3 km/h 32.0 km/h 47% 0.0 mm
Données Historique de Météo Turbie

Mise a jour : 23/06/2018 12:03:12
Généré par Cumulus 1.9.4 (1099)